Location: Unspecified
(32.2314°N, 110.9180°W)
Time: 09:22:08
(UTC-06:00)

X-37B - Visible Passes

Search period start: 29 September 2022 00:00
Search period end: 09 October 2022 00:00
Orbit: 330 x 340 km, 45.0° (Epoch: 02 September)

Date Brightness Start Highest point End Pass type
(mag) Time Alt. Az. Time Alt. Az. Time Alt. Az.
04 Oct 2.9 06:05:41 12° NNW 06:07:21 17° NNE 06:09:23 10° ENE visible
05 Oct 1.5 06:25:35 12° NW 06:28:00 40° NNE 06:30:43 10° ESE visible
06 Oct 3.8 05:14:21 12° ENE 05:14:21 12° ENE 05:14:47 10° ENE visible
06 Oct 0.5 06:45:37 10° WNW 06:48:27 53° SW 06:51:15 10° SE visible
07 Oct 2.5 05:34:30 27° E 05:34:30 27° E 05:36:09 10° ESE visible
08 Oct 1.5 05:54:47 35° SSE 05:54:47 35° SSE 05:56:40 10° SE visible
